• In Hungary
  • List of Countries
  • For 7 days
  • Water Temperature
  • Satellite Maps
  • Weather Map
  • News
  • Weather Widgets
  • user-avatar
    Login

    Hourly Weather Artashat

    Today, 20 July, Friday

    Time Temperature Precipitation Wind Pressure Humidity
    00:00 +19°C° 0 mm 3 mps 600 mmHg 29%
    01:00 +18°C° 0 mm 2 mps 600 mmHg 31%
    02:00 +18°C° 0 mm 2 mps 600 mmHg 33%
    03:00 +17°C° 0 mm 2 mps 599 mmHg 36%
    04:00 +17°C° 0 mm 2 mps 600 mmHg 36%
    05:00 +19°C° 0 mm 1 mps 600 mmHg 37%
    06:00 +19°C° 0 mm 1 mps 600 mmHg 37%
    07:00 +21°C° 0 mm 1 mps 601 mmHg 31%
    08:00 +23°C° 0 mm 1 mps 601 mmHg 26%
    09:00 +26°C° 0 mm 2 mps 602 mmHg 21%
    10:00 +27°C° 0 mm 2 mps 602 mmHg 18%
    11:00 +28°C° 0 mm 2 mps 603 mmHg 15%
    12:00 +29°C° 0 mm 3 mps 603 mmHg 12%
    13:00 +30°C° 0 mm 3 mps 603 mmHg 11%
    14:00 +31°C° 0 mm 3 mps 603 mmHg 10%
    15:00 +32°C° 0 mm 4 mps 603 mmHg 11%
    16:00 +31°C° 0 mm 3 mps 602 mmHg 11%
    17:00 +30°C° 0 mm 3 mps 602 mmHg 12%
    18:00 +29°C° 0 mm 3 mps 602 mmHg 12%
    19:00 +27°C° 0 mm 3 mps 602 mmHg 16%
    20:00 +24°C° 0 mm 3 mps 601 mmHg 20%
    21:00 +21°C° 0 mm 3 mps 601 mmHg 24%
    22:00 +20°C° 0 mm 3 mps 600 mmHg 27%
    23:00 +19°C° 0 mm 3 mps 600 mmHg 29%

    Tomorrow, 21 July, Saturday

    Time Temperature Precipitation Wind Pressure Humidity
    00:00 +18°C° 0 mm 2 mps 600 mmHg 31%
    01:00 +18°C° 0 mm 2 mps 600 mmHg 33%
    02:00 +17°C° 0 mm 2 mps 600 mmHg 35%
    03:00 +16°C° 0 mm 2 mps 600 mmHg 37%
    04:00 +16°C° 0 mm 2 mps 600 mmHg 38%
    05:00 +17°C° 0 mm 2 mps 600 mmHg 40%
    06:00 +17°C° 0 mm 2 mps 600 mmHg 42%
    07:00 +19°C° 0 mm 2 mps 601 mmHg 37%
    08:00 +21°C° 0 mm 2 mps 602 mmHg 33%
    09:00 +24°C° 0 mm 2 mps 602 mmHg 29%
    10:00 +25°C° 0 mm 2 mps 603 mmHg 25%
    11:00 +26°C° 0 mm 2 mps 603 mmHg 22%
    12:00 +27°C° 0 mm 2 mps 603 mmHg 19%
    13:00 +28°C° 0 mm 2 mps 603 mmHg 18%
    14:00 +29°C° 0 mm 3 mps 603 mmHg 17%
    15:00 +29°C° 0 mm 3 mps 603 mmHg 15%
    16:00 +29°C° 0 mm 3 mps 603 mmHg 17%
    17:00 +28°C° 0 mm 3 mps 603 mmHg 18%
    18:00 +28°C° 0 mm 4 mps 602 mmHg 19%
    19:00 +26°C° 0 mm 3 mps 602 mmHg 25%
    20:00 +22°C° 0 mm 3 mps 602 mmHg 31%
    21:00 +20°C° 0 mm 3 mps 601 mmHg 37%
    22:00 +20°C° 0 mm 3 mps 601 mmHg 41%
    23:00 +19°C° 0 mm 2 mps 601 mmHg 45%

    Day after tomorrow, 22 July, Sunday

    Time Temperature Precipitation Wind Pressure Humidity
    00:00 +18°C° 0 mm 2 mps 601 mmHg 50%
    01:00 +17°C° 0 mm 2 mps 601 mmHg 53%
    02:00 +17°C° 0 mm 2 mps 601 mmHg 56%
    03:00 +16°C° 0 mm 2 mps 600 mmHg 59%
    04:00 +16°C° 0 mm 2 mps 601 mmHg 59%
    05:00 +16°C° 0 mm 2 mps 601 mmHg 59%
    06:00 +17°C° 0 mm 2 mps 601 mmHg 59%
    07:00 +18°C° 0 mm 2 mps 601 mmHg 52%
    08:00 +20°C° 0 mm 2 mps 602 mmHg 46%
    09:00 +23°C° 0 mm 2 mps 602 mmHg 39%
    10:00 +24°C° 0 mm 2 mps 602 mmHg 36%
    11:00 +25°C° 0 mm 2 mps 603 mmHg 32%
    12:00 +27°C° 0 mm 3 mps 603 mmHg 29%
    13:00 +27°C° 0.1 mm 3 mps 603 mmHg 28%
    14:00 +27°C° 0.1 mm 3 mps 602 mmHg 28%
    15:00 +28°C° 0.1 mm 3 mps 602 mmHg 27%
    16:00 +26°C° 0.7 mm 4 mps 602 mmHg 32%
    17:00 +23°C° 0.7 mm 4 mps 601 mmHg 37%
    18:00 +22°C° 0.7 mm 4 mps 600 mmHg 43%
    19:00 +21°C° 0 mm 4 mps 600 mmHg 46%
    20:00 +20°C° 0 mm 3 mps 600 mmHg 49%
    21:00 +19°C° 0 mm 2 mps 600 mmHg 52%
    22:00 +18°C° 0 mm 2 mps 600 mmHg 54%
    23:00 +19°C° 0 mm 1 mps 600 mmHg 55%

    23 July, Monday

    Time Temperature Precipitation Wind Pressure Humidity
    00:00 +18°C° 0 mm 1 mps 600 mmHg 56%
    01:00 +18°C° 0 mm 1 mps 600 mmHg 57%
    02:00 +16°C° 0 mm 1 mps 600 mmHg 59%
    03:00 +16°C° 0 mm 1 mps 599 mmHg 60%
    04:00 +16°C° 0 mm 1 mps 600 mmHg 59%
    05:00 +16°C° 0 mm 1 mps 600 mmHg 59%
    06:00 +18°C° 0 mm 1 mps 600 mmHg 58%
    07:00 +18°C° 0 mm 2 mps 600 mmHg 52%
    08:00 +20°C° 0 mm 2 mps 601 mmHg 47%
    09:00 +23°C° 0 mm 2 mps 601 mmHg 41%
    10:00 +24°C° 0 mm 2 mps 601 mmHg 37%
    11:00 +25°C° 0 mm 2 mps 601 mmHg 33%
    12:00 +27°C° 0 mm 2 mps 602 mmHg 29%
    13:00 +27°C° 0.2 mm 2 mps 601 mmHg 30%
    14:00 +27°C° 0.2 mm 2 mps 601 mmHg 30%
    15:00 +27°C° 0.2 mm 2 mps 601 mmHg 31%
    16:00 +26°C° 0.4 mm 2 mps 601 mmHg 35%
    17:00 +25°C° 0.4 mm 2 mps 601 mmHg 40%
    18:00 +23°C° 0.4 mm 2 mps 600 mmHg 44%
    19:00 +21°C° 0.1 mm 2 mps 600 mmHg 47%
    20:00 +20°C° 0.1 mm 2 mps 601 mmHg 50%
    21:00 +20°C° 0.1 mm 1 mps 601 mmHg 53%
    22:00 +19°C° 0 mm 2 mps 601 mmHg 56%
    23:00 +18°C° 0 mm 2 mps 600 mmHg 58%

    24 July, Tuesday

    Time Temperature Precipitation Wind Pressure Humidity
    00:00 +17°C° 0 mm 2 mps 600 mmHg 60%
    01:00 +17°C° 0 mm 2 mps 600 mmHg 63%
    02:00 +16°C° 0 mm 2 mps 600 mmHg 66%
    03:00 +15°C° 0 mm 2 mps 599 mmHg 68%
    04:00 +16°C° 0 mm 1 mps 600 mmHg 66%
    05:00 +16°C° 0 mm 1 mps 600 mmHg 64%
    06:00 +18°C° 0 mm 1 mps 600 mmHg 62%
    07:00 +19°C° 0 mm 1 mps 601 mmHg 54%
    08:00 +21°C° 0 mm 1 mps 602 mmHg 46%
    09:00 +23°C° 0 mm 2 mps 602 mmHg 38%
    10:00 +24°C° 0 mm 2 mps 603 mmHg 34%
    11:00 +26°C° 0 mm 2 mps 603 mmHg 30%
    12:00 +27°C° 0 mm 2 mps 603 mmHg 26%
    13:00 +28°C° 0 mm 2 mps 603 mmHg 25%
    14:00 +28°C° 0 mm 2 mps 603 mmHg 24%
    15:00 +29°C° 0 mm 2 mps 603 mmHg 22%
    16:00 +29°C° 0 mm 2 mps 603 mmHg 23%
    17:00 +29°C° 0 mm 2 mps 603 mmHg 23%
    18:00 +28°C° 0 mm 2 mps 603 mmHg 24%
    19:00 +26°C° 0 mm 2 mps 603 mmHg 28%
    20:00 +24°C° 0 mm 2 mps 603 mmHg 33%
    21:00 +22°C° 0 mm 1 mps 602 mmHg 37%
    22:00 +22°C° 0 mm 1 mps 602 mmHg 40%
    23:00 +21°C° 0 mm 1 mps 602 mmHg 42%

    25 July, Wednesday

    Time Temperature Precipitation Wind Pressure Humidity
    00:00 +20°C° 0 mm 1 mps 602 mmHg 45%
    01:00 +20°C° 0 mm 1 mps 602 mmHg 46%
    02:00 +19°C° 0 mm 1 mps 602 mmHg 47%
    03:00 +19°C° 0 mm 1 mps 602 mmHg 47%
    04:00 +19°C° 0 mm 1 mps 602 mmHg 47%
    05:00 +20°C° 0 mm 1 mps 602 mmHg 46%
    06:00 +20°C° 0 mm 1 mps 603 mmHg 46%
    07:00 +22°C° 0 mm 1 mps 603 mmHg 41%
    08:00 +24°C° 0 mm 1 mps 604 mmHg 36%
    09:00 +26°C° 0 mm 2 mps 605 mmHg 31%
    10:00 +27°C° 0 mm 2 mps 605 mmHg 28%
    11:00 +29°C° 0 mm 2 mps 605 mmHg 25%
    12:00 +30°C° 0 mm 2 mps 605 mmHg 22%
    13:00 +31°C° 0 mm 3 mps 605 mmHg 20%
    14:00 +33°C° 0 mm 3 mps 605 mmHg 19%
    15:00 +34°C° 0 mm 3 mps 605 mmHg 17%
    16:00 +33°C° 0 mm 3 mps 605 mmHg 19%
    17:00 +33°C° 0 mm 3 mps 605 mmHg 20%
    18:00 +33°C° 0 mm 3 mps 604 mmHg 21%
    19:00 +29°C° 0 mm 2 mps 604 mmHg 26%
    20:00 +27°C° 0 mm 2 mps 604 mmHg 31%
    21:00 +25°C° 0 mm 1 mps 603 mmHg 36%
    22:00 +25°C° 0 mm 2 mps 603 mmHg 38%
    23:00 +24°C° 0 mm 2 mps 603 mmHg 40%
    Show more